Regional Weather Roundup
Issued by NWS

Home | Current Version | Previous Version | Graphics & Text | Print | Product List | Glossary On
Versions: 1 2 3 4 5 6 7 8 9 10 11 12 13 14 15 16 17 18 19 20 21 22 23 24 25 26 27 28
000
ASUS45 KBOI 280910
RWRID

IDAHO REGIONAL WEATHER ROUNDUP
NATIONAL WEATHER SERVICE BOISE ID
200 AM MST TUE FEB 28 2017

NOTE: "FAIR" INDICATES FEW OR NO CLOUDS BELOW 12000 FEET
WITH NO SIGNIFICANT WEATHER AND/OR OBSTRUCTIONS TO VISIBILITY

IDZ012-014-281000-
SOUTHWEST IDAHO


CITY           SKY/WX    TMP DP  RH WIND       PRES   REMARKS
BOISE          FLURRIES  29  27  92 E9        29.79F WCI  20
CALDWELL       CLOUDY    31  28  89 CALM        N/A
MOUNTAIN HOME  CLOUDY    28  25  86 E8        29.79S WCI  20
$$

IDZ016-017-281000-
SOUTHCENTRAL IDAHO


CITY           SKY/WX    TMP DP  RH WIND       PRES   REMARKS
BURLEY         CLOUDY    27  13  55 SW15      29.77S WCI  15
JEROME         CLOUDY    23  10  57 S6        29.78F WCI  16
TWIN FALLS     CLOUDY    23   9  55 S13       29.77S WCI  11
$$

IDZ019>023-281000-
SOUTHEAST IDAHO


CITY           SKY/WX    TMP DP  RH WIND       PRES   REMARKS
IDAHO FALLS    CLOUDY    15  13  91 SW9       29.76S WCI   3
POCATELLO      CLOUDY    22  11  62 S12       29.79S WCI  10
REXBURG        CLOUDY    18  14  84 SW7       29.73F WCI   9
$$

IDZ006-010-011-018-031-032-281000-
CENTRAL IDAHO MOUNTAINS


CITY           SKY/WX    TMP DP  RH WIND       PRES   REMARKS
MCCALL         LGT SNOW  22  18  85 SE9       29.62R FOG     WCI  12
HAILEY         CLOUDY    14  10  85 N3        29.75S
STANLEY          N/A     16  10  77 S9        29.61F WCI   4
SALMON         CLOUDY    27   9  46 S7        29.66S WCI  19
CHALLIS        PTCLDY    16   6  65 NE7       29.66F WCI   6
$$

IDZ002-004-006-007-026-281000-
NORTHERN IDAHO


CITY           SKY/WX    TMP DP  RH WIND       PRES   REMARKS
LEWISTON       CLOUDY    32  30  92 NE3       29.69S
LOWELL         NOT AVBL
COEUR D`ALENE  CLOUDY    29  27  92 S9        29.60R WCI  20
MULLAN PASS    HVY SNOW  18  16  92 SW8       29.42F VSB 1/4 WCI   8
$$




USA.gov is the U.S. government's official web portal to all federal, state and local government web resources and services.